Weather History for Bowling Green, KY

Change the Weather History Date:

Tuesday, November 20, 2012

  Actual Average Record
Temperature  
Mean Temperature 58 °F 47 °F  
Max Temperature 68 °F 57 °F 79 °F (1906)
Min Temperature 47 °F 36 °F 5 °F (1914)
Degree Days  
Heating Degree Days 7 18  
Month to date heating degree days 339 296  
Since 1 July heating degree days 613 559  
Cooling Degree Days 0 0  
Month to date cooling degree days 0 0  
Year to date cooling degree days 1935 1488  
Growing Degree Days 7 (Base 50)    
Moisture  
Dew Point 43 °F    
Average Humidity 59    
Maximum Humidity 80    
Minimum Humidity 37    
Precipitation  
Precipitation 0.00 in 0.15 in 1.80 in (1915)
Month to date precipitation 0.92 2.68  
Year to date precipitation 35.34 43.55  
Snow  
Snow 0.00 in 0.00 in 0.30 in (1914)
Month to date snowfall 0.0 0.0  
Since 1 July snowfall 0.0 T  
Since 1 September snowfall 0.0 T  
Snow Depth 0.00 in    
Sea Level Pressure  
Sea Level Pressure 30.12 in    
Wind  
Wind Speed 3 mph (WSW)    
Max Wind Speed 13 mph    
Max Gust Speed 16 mph    
Visibility 10 miles    
Events      
T = Trace of Precipitation, MM = Missing Value Source: NWS Daily Summary

Daily Weather History Graph

Daily Weather History Graph

Search for Another Location

Airport:

Trip Planner

Search our weather history database for the weather conditions in past years. The results will help you decide how hot, cold, wet, or windy it might be!

Date:

Astronomy

Nov. 20, 2012 Rise Set
Actual Time 6:29 AM CST 4:32 PM CST
Civil Twilight 6:01 AM CST 5:00 PM CST
Nautical Twilight 5:30 AM CST 5:32 PM CST
Astronomical Twilight 4:59 AM CST 6:03 PM CST
Moon 12:08 PM CST (11/20) 11:58 PM CST (11/20)
Length of Visible Light 10h 58m
Length of Day
10h 02m
First Quarter, 51% of the Moon is Illuminated
Nov 20
First Quarter
Nov 28
Full
Dec 6
Last Quarter
Dec 13
New
Dec 19
First Quarter

Hourly Weather History & Observations

Time (CST) Temp. Dew Point Humidity Pressure Visibility Wind Dir Wind Speed Gust Speed Precip Events Conditions
12:53 AM 50.0 °F 39.9 °F 68% 30.18 in 10.0 mi Calm Calm - N/A   Overcast
2:53 AM 50.0 °F 42.1 °F 74% 30.17 in 10.0 mi Calm Calm - N/A   Overcast
3:53 AM 48.9 °F 41.0 °F 74% 30.15 in 10.0 mi Calm Calm - N/A   Overcast
4:53 AM 50.0 °F 39.0 °F 66% 30.16 in 10.0 mi Calm Calm - N/A   Overcast
6:53 AM 48.9 °F 42.1 °F 77% 30.16 in 10.0 mi Calm Calm - N/A   Overcast
7:53 AM 52.0 °F 44.1 °F 74% 30.17 in 10.0 mi Calm Calm - N/A   Overcast
8:53 AM 55.9 °F 42.1 °F 60% 30.17 in 10.0 mi SW 3.5 mph - N/A   Overcast
9:53 AM 61.0 °F 42.1 °F 50% 30.16 in 10.0 mi SW 3.5 mph - N/A   Scattered Clouds
10:53 AM 64.9 °F 41.0 °F 42% 30.14 in 10.0 mi SW 10.4 mph - N/A   Mostly Cloudy
11:53 AM 66.9 °F 39.9 °F 37% 30.10 in 10.0 mi SSW 9.2 mph - N/A   Mostly Cloudy
12:53 PM 66.9 °F 41.0 °F 39% 30.09 in 10.0 mi WSW 4.6 mph - N/A   Clear
1:53 PM 66.0 °F 42.1 °F 42% 30.07 in 10.0 mi SW 9.2 mph - N/A   Mostly Cloudy
2:53 PM 66.0 °F 42.1 °F 42% 30.06 in 10.0 mi SSW 9.2 mph - N/A   Scattered Clouds
3:53 PM 64.9 °F 43.0 °F 45% 30.06 in 10.0 mi SW 4.6 mph - N/A   Scattered Clouds
4:53 PM 62.1 °F 43.0 °F 50% 30.07 in 10.0 mi Calm Calm - N/A   Mostly Cloudy
5:53 PM 60.1 °F 44.1 °F 55% 30.09 in 10.0 mi Calm Calm - N/A   Overcast
6:53 PM 59.0 °F 45.0 °F 60% 30.10 in 10.0 mi Calm Calm - N/A   Overcast
7:53 PM 60.1 °F 45.0 °F 57% 30.10 in 10.0 mi Calm Calm - N/A   Overcast
8:53 PM 57.9 °F 45.0 °F 62% 30.11 in 10.0 mi Calm Calm - N/A   Overcast
9:53 PM 57.9 °F 46.0 °F 65% 30.12 in 10.0 mi Calm Calm - N/A   Overcast
10:53 PM 60.1 °F 45.0 °F 57% 30.13 in 10.0 mi North 4.6 mph - N/A   Overcast
11:53 PM 57.9 °F 45.0 °F 62% 30.12 in 10.0 mi North 3.5 mph - N/A   Partly Cloudy